Miscellaneous Local Product
Issued by NWS North Platte, NE

Home | Current Version | Previous Version | Text Only | Print | Product List | Glossary On
Versions: 1 2 3 4 5 6 7 8 9 10 11 12 13 14 15 16 17 18 19 20 21 22 23 24 25 26 27 28 29 30 31 32 33 34 35 36 37 38 39 40 41 42 43 44 45 46 47 48 49 50
341
AXUS43 KLBF 161410
MISLBF


WESTERN AND NORTH CENTRAL NEBRASKA HOURLY WEATHER ROUNDUP
NATIONAL WEATHER SERVICE NORTH PLATTE NE
900 AM CDT WED AUG 16 2017

NOTE: "FAIR" INDICATES FEW OR NO CLOUDS BELOW 12,000 FEET WITH NO
SIGNIFICANT WEATHER AND/OR OBSTRUCTIONS TO VISIBILITY.

NOTE: STATIONS NOT REPORTING VARIABLES SUCH AS SKY/WEATHER OR
PRESSURE ARE PROVIDED BY RAWS AND APRS NETWORKS AND ARE NOT UNDER
NATIONAL WEATHER SERVICE QUALITY CONTROL.

...OBSERVATIONS IN AND NEAR THE EASTERN PANHANDLE OF NEBRASKA...

CITY           SKY/WX    TMP DP  RH WIND       PRES   REMARKS
PINE RIDGE     CLOUDY    61  60  97 N12       29.98R
GORDON         CLOUDY    60  58  92 N8        29.97S
CHADRON        CLOUDY    62  58  86 NW6       30.00R
ALLIANCE       CLOUDY    61  56  83 N14       29.99R
SIDNEY         SUNNY     61  56  83 NW15      30.02R
CRESCENT LAKE    N/A     61  59  92 N13G21      N/A
$$

...OBSERVATIONS IN NORTHERN NEBRASKA AND FAR SOUTHERN SOUTH DAKOTA...

CITY           SKY/WX    TMP DP  RH WIND       PRES   REMARKS
WINNER         CLOUDY    68  66  93 NW10      29.86R
VALENTINE      CLOUDY    66  61  84 NW12G21   29.89R
THEDFORD       CLOUDY    63  61  93 NW8       29.92R
AINSWORTH      CLOUDY    63  62  97 NW5       29.89R
O`NEILL        DRIZZLE   64  64 100 CALM      29.85R
ORD            RAIN      63  60  90 NW7       29.84R FOG
BROKEN BOW     CLOUDY    63  62  97 N12       29.87R
HALSEY           N/A     60  59  97 W7          N/A
BUTTE            N/A     63  62  97 CALM        N/A
CHAMBERS         N/A     64  63  97 CALM        N/A
EWING            N/A     64  63  97 CALM        N/A
$$

...OBSERVATIONS IN SOUTHWEST NEBRASKA AND FAR NORTHEAST COLORADO...

CITY           SKY/WX    TMP DP  RH WIND       PRES   REMARKS
HOLYOKE        FAIR      63  61  94 NW6       30.00R
IMPERIAL       CLOUDY    63  58  83 W9        29.97R
OGALLALA       CLOUDY    64  61  89 W5        29.95R
NORTH PLATTE   SUNNY     65  61  87 NW8       29.92R
MCCOOK         CLOUDY    63  61  93 NW10      29.93R
LEXINGTON      CLOUDY    64  60  89 W12       29.91R
STAPLETON        N/A     61  60  96 CALM        N/A
GOTHENBURG       N/A     60  55  85 NW7         N/A
CALLAWAY         N/A     59  58  97 NW8         N/A
$$

...OBSERVATIONS IN CENTRAL LINCOLN COUNTY AREA...

CITY           SKY/WX    TMP DP  RH WIND       PRES   REMARKS
N.P. AIRPORT   SUNNY     65  61  87 NW8       29.92R
N.P. DOWNTOWN    N/A     87  67  50 CALM        N/A
N.P. SOUTHEAST   N/A     63  60  88 N3          N/A
N.P. HILLCREST   N/A     65  61  87 NW8         N/A
$$

...SOME OBSERVATIONS FROM AROUND THE REGION...

CITY           SKY/WX    TMP DP  RH WIND       PRES   REMARKS
DENVER         CLOUDY    59  51  75 NE6       30.12R
LIMON          MOSUNNY   56  52  86 NW10      30.10R
ASPEN          CLOUDY    51  39  63 CALM      30.26R
LARAMIE        CLOUDY    48  46  93 SE3       30.21R
CASPER         SUNNY     52  49  89 W5        30.13R
CHEYENNE       CLOUDY    54  45  71 NW7       30.14R
SCOTTSBLUFF    MOSUNNY   59  55  87 W7        30.02R
GRAND ISLAND   CLOUDY    64  64 100 NW8       29.83R
OMAHA          CLOUDY    75  69  81 SE15      29.77F
SIOUX FALLS    LGT RAIN  67  66  97 E7        29.84S FOG
PIERRE         LGT RAIN  63  61  93 N13       29.87R
RAPID CITY     CLOUDY    61  54  77 N14       29.99R
BISMARCK       CLOUDY    62  59  90 N10       29.92R
KANSAS CITY    CLOUDY    74  73  97 S12       29.85S
HILL CITY      CLOUDY    65  63  93 W10       29.91R
WICHITA        LGT RAIN  68  67  96 NE15      29.89R
DODGE CITY     CLOUDY    68  62  81 NE7       29.91R
OKLAHOMA CITY  PTSUNNY   78  72  81 S14       29.87R
DALLAS         PTSUNNY   83  75  77 S16       29.91R HX  90
AMARILLO       SUNNY     69  62  78 NW8       29.97R
$$




USA.gov is the U.S. government's official web portal to all federal, state and local government web resources and services.